Year,Month,Day,Hour,Minute,Value (Times are PST for temperature in C)
2015,08,22,00,00,14.60
2015,08,22,00,01,14.50
2015,08,22,00,02,14.50
2015,08,22,00,03,14.50
2015,08,22,00,04,14.50
2015,08,22,00,05,14.50
2015,08,22,00,06,14.50
2015,08,22,00,07,14.40
2015,08,22,00,08,14.40
2015,08,22,00,09,14.40
2015,08,22,00,10,14.40
2015,08,22,00,11,14.40
2015,08,22,00,12,14.40
2015,08,22,00,13,14.30
2015,08,22,00,14,14.30
2015,08,22,00,15,14.30
2015,08,22,00,16,14.30
2015,08,22,00,17,14.30
2015,08,22,00,18,14.20
2015,08,22,00,19,14.20
2015,08,22,00,20,14.20
2015,08,22,00,21,14.20
2015,08,22,00,22,14.20
2015,08,22,00,23,14.20
2015,08,22,00,24,14.20
2015,08,22,00,25,14.20
2015,08,22,00,26,14.20
2015,08,22,00,27,14.20
2015,08,22,00,28,14.20
2015,08,22,00,29,14.20
2015,08,22,00,30,14.20
2015,08,22,00,31,14.20
2015,08,22,00,32,14.10
2015,08,22,00,33,14.10
2015,08,22,00,34,14.10
2015,08,22,00,35,14.10
2015,08,22,00,36,14.10
2015,08,22,00,37,14.10
2015,08,22,00,38,14.10
2015,08,22,00,39,14.10
2015,08,22,00,40,14.10
2015,08,22,00,41,14.10
2015,08,22,00,42,14.10
2015,08,22,00,43,14.10
2015,08,22,00,44,14.10
2015,08,22,00,45,14.10
2015,08,22,00,46,14.10
2015,08,22,00,47,14.10
2015,08,22,00,48,14.10
2015,08,22,00,49,14.10
2015,08,22,00,50,14.00
2015,08,22,00,51,14.00
2015,08,22,00,52,14.00
2015,08,22,00,53,14.00
2015,08,22,00,54,14.00
2015,08,22,00,55,14.00
2015,08,22,00,56,14.00
2015,08,22,00,57,14.00
2015,08,22,00,58,14.00
2015,08,22,00,59,14.00
2015,08,22,01,00,14.00
2015,08,22,01,01,14.00
2015,08,22,01,02,14.00
2015,08,22,01,03,14.00
2015,08,22,01,04,14.00
2015,08,22,01,05,14.00
2015,08,22,01,06,14.00
2015,08,22,01,07,14.00
2015,08,22,01,08,14.00
2015,08,22,01,09,14.00
2015,08,22,01,10,14.00
2015,08,22,01,11,13.90
2015,08,22,01,12,13.90
2015,08,22,01,13,13.90
2015,08,22,01,14,13.90
2015,08,22,01,15,13.80
2015,08,22,01,16,13.80
2015,08,22,01,17,13.80
2015,08,22,01,18,13.80
2015,08,22,01,19,13.80
2015,08,22,01,20,13.80
2015,08,22,01,21,13.70
2015,08,22,01,22,13.70
2015,08,22,01,23,13.70
2015,08,22,01,24,13.70
2015,08,22,01,25,13.70
2015,08,22,01,26,13.70
2015,08,22,01,27,13.70
2015,08,22,01,28,13.70
2015,08,22,01,29,13.70
2015,08,22,01,30,13.70
2015,08,22,01,31,13.70
2015,08,22,01,32,13.70
2015,08,22,01,33,13.70
2015,08,22,01,34,13.70
2015,08,22,01,35,13.70
2015,08,22,01,36,13.70
2015,08,22,01,37,13.70
2015,08,22,01,38,13.70
2015,08,22,01,39,13.70
2015,08,22,01,40,13.70
2015,08,22,01,41,13.70
2015,08,22,01,42,13.70
2015,08,22,01,43,13.70
2015,08,22,01,44,13.60
2015,08,22,01,45,13.60
2015,08,22,01,46,13.60
2015,08,22,01,47,13.50
2015,08,22,01,48,13.50
2015,08,22,01,49,13.50
2015,08,22,01,50,13.50
2015,08,22,01,51,13.40
2015,08,22,01,52,13.40
2015,08,22,01,53,13.40
2015,08,22,01,54,13.40
2015,08,22,01,55,13.40
2015,08,22,01,56,13.30
2015,08,22,01,57,13.30
2015,08,22,01,58,13.30
2015,08,22,01,59,13.30
2015,08,22,02,00,13.30
2015,08,22,02,01,13.30
2015,08,22,02,02,13.30
2015,08,22,02,03,13.30
2015,08,22,02,04,13.30
2015,08,22,02,05,13.30
2015,08,22,02,06,13.30
2015,08,22,02,07,13.30
2015,08,22,02,08,13.30
2015,08,22,02,09,13.30
2015,08,22,02,10,13.20
2015,08,22,02,11,13.20
2015,08,22,02,12,13.20
2015,08,22,02,13,13.20
2015,08,22,02,14,13.20
2015,08,22,02,15,13.20
2015,08,22,02,16,13.20
2015,08,22,02,17,13.20
2015,08,22,02,18,13.20
2015,08,22,02,19,13.10
2015,08,22,02,20,13.10
2015,08,22,02,21,13.10
2015,08,22,02,22,13.10
2015,08,22,02,23,13.10
2015,08,22,02,24,13.10
2015,08,22,02,25,13.00
2015,08,22,02,26,13.00
2015,08,22,02,27,13.00
2015,08,22,02,28,13.00
2015,08,22,02,29,13.00
2015,08,22,02,30,12.90
2015,08,22,02,31,12.90
2015,08,22,02,32,12.90
2015,08,22,02,33,12.90
2015,08,22,02,34,12.90
2015,08,22,02,35,12.90
2015,08,22,02,36,12.80
2015,08,22,02,37,12.80
2015,08,22,02,38,12.80
2015,08,22,02,39,12.80
2015,08,22,02,40,12.80
2015,08,22,02,41,12.80
2015,08,22,02,42,12.80
2015,08,22,02,43,12.80
2015,08,22,02,44,12.80
2015,08,22,02,45,12.80
2015,08,22,02,46,12.80
2015,08,22,02,47,12.80
2015,08,22,02,48,12.80
2015,08,22,02,49,12.70
2015,08,22,02,50,12.70
2015,08,22,02,51,12.70
2015,08,22,02,52,12.70
2015,08,22,02,53,12.70
2015,08,22,02,54,12.70
2015,08,22,02,55,12.70
2015,08,22,02,56,12.70
2015,08,22,02,57,12.70
2015,08,22,02,58,12.70
2015,08,22,02,59,12.70
2015,08,22,03,00,12.70
2015,08,22,03,01,12.70
2015,08,22,03,02,12.70
2015,08,22,03,03,12.70
2015,08,22,03,04,12.70
2015,08,22,03,05,12.70
2015,08,22,03,06,12.70
2015,08,22,03,07,12.60
2015,08,22,03,08,12.60
2015,08,22,03,09,12.60
2015,08,22,03,10,12.70
2015,08,22,03,11,12.70
2015,08,22,03,12,12.70
2015,08,22,03,13,12.70
2015,08,22,03,14,12.70
2015,08,22,03,15,12.70
2015,08,22,03,16,12.70
2015,08,22,03,17,12.70
2015,08,22,03,18,12.70
2015,08,22,03,19,12.70
2015,08,22,03,20,12.70
2015,08,22,03,21,12.70
2015,08,22,03,22,12.70
2015,08,22,03,23,12.70
2015,08,22,03,24,12.70
2015,08,22,03,25,12.70
2015,08,22,03,26,12.70
2015,08,22,03,27,12.80
2015,08,22,03,28,12.80
2015,08,22,03,29,12.80
2015,08,22,03,30,12.80
2015,08,22,03,31,12.80
2015,08,22,03,32,12.80
2015,08,22,03,33,12.80
2015,08,22,03,34,12.80
2015,08,22,03,35,12.90
2015,08,22,03,36,12.90
2015,08,22,03,37,12.90
2015,08,22,03,38,13.00
2015,08,22,03,39,13.00
2015,08,22,03,40,13.00
2015,08,22,03,41,13.10
2015,08,22,03,42,13.10
2015,08,22,03,43,13.20
2015,08,22,03,44,13.20
2015,08,22,03,45,13.20
2015,08,22,03,46,13.30
2015,08,22,03,47,13.30
2015,08,22,03,48,13.30
2015,08,22,03,49,13.30
2015,08,22,03,50,13.40
2015,08,22,03,51,13.40
2015,08,22,03,52,13.40
2015,08,22,03,53,13.50
2015,08,22,03,54,13.50
2015,08,22,03,55,13.50
2015,08,22,03,56,13.60
2015,08,22,03,57,13.60
2015,08,22,03,58,13.60
2015,08,22,03,59,13.70
2015,08,22,04,00,13.70
2015,08,22,04,01,13.70
2015,08,22,04,02,13.70
2015,08,22,04,03,13.70
2015,08,22,04,04,13.70
2015,08,22,04,05,13.70
2015,08,22,04,06,13.70
2015,08,22,04,07,13.70
2015,08,22,04,08,13.70
2015,08,22,04,09,13.70
2015,08,22,04,10,13.70
2015,08,22,04,11,13.70
2015,08,22,04,12,13.80
2015,08,22,04,13,13.80
2015,08,22,04,14,13.80
2015,08,22,04,15,13.80
2015,08,22,04,16,13.80
2015,08,22,04,17,13.80
2015,08,22,04,18,13.80
2015,08,22,04,19,13.90
2015,08,22,04,20,13.80
2015,08,22,04,21,13.80
2015,08,22,04,22,13.80
2015,08,22,04,23,13.80
2015,08,22,04,24,13.80
2015,08,22,04,25,13.80
2015,08,22,04,26,13.80
2015,08,22,04,27,13.80
2015,08,22,04,28,13.80
2015,08,22,04,29,13.80
2015,08,22,04,30,13.80
2015,08,22,04,31,13.80
2015,08,22,04,32,13.80
2015,08,22,04,33,13.70
2015,08,22,04,34,13.70
2015,08,22,04,35,13.70
2015,08,22,04,36,13.70
2015,08,22,04,37,13.70
2015,08,22,04,38,13.70
2015,08,22,04,39,13.70
2015,08,22,04,40,13.70
2015,08,22,04,41,13.70
2015,08,22,04,42,13.60
2015,08,22,04,43,13.60
2015,08,22,04,44,13.60
2015,08,22,04,45,13.60
2015,08,22,04,46,13.60
2015,08,22,04,47,13.50
2015,08,22,04,48,13.50
2015,08,22,04,49,13.50
2015,08,22,04,50,13.50
2015,08,22,04,51,13.50
2015,08,22,04,52,13.40
2015,08,22,04,53,13.40
2015,08,22,04,54,13.40
2015,08,22,04,55,13.40
2015,08,22,04,56,13.40
2015,08,22,04,57,13.30
2015,08,22,04,58,13.30
2015,08,22,04,59,13.30
2015,08,22,05,00,13.30
2015,08,22,05,01,13.30
2015,08,22,05,02,13.30
2015,08,22,05,03,13.30
2015,08,22,05,04,13.30
2015,08,22,05,05,13.30
2015,08,22,05,06,13.30
2015,08,22,05,07,13.30
2015,08,22,05,08,13.30
2015,08,22,05,09,13.30
2015,08,22,05,10,13.30
2015,08,22,05,11,13.20
2015,08,22,05,12,13.20
2015,08,22,05,13,13.20
2015,08,22,05,14,13.20
2015,08,22,05,15,13.10
2015,08,22,05,16,13.10
2015,08,22,05,17,13.10
2015,08,22,05,18,13.10
2015,08,22,05,19,13.10
2015,08,22,05,20,13.00
2015,08,22,05,21,13.00
2015,08,22,05,22,13.00
2015,08,22,05,23,13.00
2015,08,22,05,24,13.00
2015,08,22,05,25,13.00
2015,08,22,05,26,13.00
2015,08,22,05,27,13.00
2015,08,22,05,28,12.90
2015,08,22,05,29,12.90
2015,08,22,05,30,12.90
2015,08,22,05,31,12.90
2015,08,22,05,32,12.90
2015,08,22,05,33,12.90
2015,08,22,05,34,12.90
2015,08,22,05,35,12.80
2015,08,22,05,36,12.80
2015,08,22,05,37,12.80
2015,08,22,05,38,12.80
2015,08,22,05,39,12.80
2015,08,22,05,40,12.80
2015,08,22,05,41,12.80
2015,08,22,05,42,12.80
2015,08,22,05,43,12.80
2015,08,22,05,44,12.80
2015,08,22,05,45,12.70
2015,08,22,05,46,12.70
2015,08,22,05,47,12.70
2015,08,22,05,48,12.70
2015,08,22,05,49,12.70
2015,08,22,05,50,12.60
2015,08,22,05,51,12.60
2015,08,22,05,52,12.60
2015,08,22,05,53,12.60
2015,08,22,05,54,12.60
2015,08,22,05,55,12.60
2015,08,22,05,56,12.50
2015,08,22,05,57,12.50
2015,08,22,05,58,12.50
2015,08,22,05,59,12.50
2015,08,22,06,00,12.50
2015,08,22,06,01,12.50
2015,08,22,06,02,12.50
2015,08,22,06,03,12.40
2015,08,22,06,04,12.40
2015,08,22,06,05,12.40
2015,08,22,06,06,12.40
2015,08,22,06,07,12.40
2015,08,22,06,08,12.40
2015,08,22,06,09,12.30
2015,08,22,06,10,12.30
2015,08,22,06,11,12.30
2015,08,22,06,12,12.30
2015,08,22,06,13,12.30
2015,08,22,06,14,12.30
2015,08,22,06,15,12.30
2015,08,22,06,16,12.30
2015,08,22,06,17,12.30
2015,08,22,06,18,12.30
2015,08,22,06,19,12.30
2015,08,22,06,20,12.30
2015,08,22,06,21,12.30
2015,08,22,06,22,12.30
2015,08,22,06,23,12.30
2015,08,22,06,24,12.30
2015,08,22,06,25,12.30
2015,08,22,06,26,12.30
2015,08,22,06,27,12.30
2015,08,22,06,28,12.30
2015,08,22,06,29,12.30
2015,08,22,06,30,12.30
2015,08,22,06,31,12.30
2015,08,22,06,32,12.30
2015,08,22,06,33,12.30
2015,08,22,06,34,12.30
2015,08,22,06,35,12.30
2015,08,22,06,36,12.30
2015,08,22,06,37,12.30
2015,08,22,06,38,12.30
2015,08,22,06,39,12.30
2015,08,22,06,40,12.30
2015,08,22,06,41,12.30
2015,08,22,06,42,12.30
2015,08,22,06,43,12.30
2015,08,22,06,44,12.30
2015,08,22,06,45,12.30
2015,08,22,06,46,12.30
2015,08,22,06,47,12.30
2015,08,22,06,48,12.30
2015,08,22,06,49,12.30
2015,08,22,06,50,12.30
2015,08,22,06,51,12.30
2015,08,22,06,52,12.30
2015,08,22,06,53,12.40
2015,08,22,06,54,12.40
2015,08,22,06,55,12.40
2015,08,22,06,56,12.50
2015,08,22,06,57,12.50
2015,08,22,06,58,12.50
2015,08,22,06,59,12.60
2015,08,22,07,00,12.60
2015,08,22,07,01,12.70
2015,08,22,07,02,12.70
2015,08,22,07,03,12.80
2015,08,22,07,04,12.80
2015,08,22,07,05,12.80
2015,08,22,07,06,12.80
2015,08,22,07,07,12.80
2015,08,22,07,08,12.90
2015,08,22,07,09,12.90
2015,08,22,07,10,12.90
2015,08,22,07,11,13.00
2015,08,22,07,12,13.00
2015,08,22,07,13,13.00
2015,08,22,07,14,13.10
2015,08,22,07,15,13.10
2015,08,22,07,16,13.10
2015,08,22,07,17,13.10
2015,08,22,07,18,13.20
2015,08,22,07,19,13.20
2015,08,22,07,20,13.20
2015,08,22,07,21,13.20
2015,08,22,07,22,13.30
2015,08,22,07,23,13.30
2015,08,22,07,24,13.30
2015,08,22,07,25,13.30
2015,08,22,07,26,13.30
2015,08,22,07,27,13.40
2015,08,22,07,28,13.40
2015,08,22,07,29,13.50
2015,08,22,07,30,13.50
2015,08,22,07,31,13.50
2015,08,22,07,32,13.60
2015,08,22,07,33,13.60
2015,08,22,07,34,13.70
2015,08,22,07,35,13.70
2015,08,22,07,36,13.70
2015,08,22,07,37,13.80
2015,08,22,07,38,13.80
2015,08,22,07,39,13.90
2015,08,22,07,40,13.90
2015,08,22,07,41,14.00
2015,08,22,07,42,14.00
2015,08,22,07,43,14.00
2015,08,22,07,44,14.10
2015,08,22,07,45,14.10
2015,08,22,07,46,14.20
2015,08,22,07,47,14.20
2015,08,22,07,48,14.30
2015,08,22,07,49,14.40
2015,08,22,07,50,14.50
2015,08,22,07,51,14.50
2015,08,22,07,52,14.60
2015,08,22,07,53,14.70
2015,08,22,07,54,14.80
2015,08,22,07,55,14.80
2015,08,22,07,56,14.90
2015,08,22,07,57,14.90
2015,08,22,07,58,15.00
2015,08,22,07,59,15.10
2015,08,22,08,00,15.10
2015,08,22,08,01,15.20
2015,08,22,08,02,15.30
2015,08,22,08,03,15.30
2015,08,22,08,04,15.40
2015,08,22,08,05,15.50
2015,08,22,08,06,15.60
2015,08,22,08,07,15.70
2015,08,22,08,08,15.80
2015,08,22,08,09,15.80
2015,08,22,08,10,15.90
2015,08,22,08,11,16.00
2015,08,22,08,12,16.10
2015,08,22,08,13,16.20
2015,08,22,08,14,16.30
2015,08,22,08,15,16.40
2015,08,22,08,16,16.40
2015,08,22,08,17,16.40
2015,08,22,08,18,16.40
2015,08,22,08,19,16.50
2015,08,22,08,20,16.60
2015,08,22,08,21,16.60
2015,08,22,08,22,16.60
2015,08,22,08,23,16.60
2015,08,22,08,24,16.70
2015,08,22,08,25,16.70
2015,08,22,08,26,16.80
2015,08,22,08,27,16.80
2015,08,22,08,28,16.80
2015,08,22,08,29,16.90
2015,08,22,08,30,16.90
2015,08,22,08,31,17.00
2015,08,22,08,32,16.90
2015,08,22,08,33,16.90
2015,08,22,08,34,16.90
2015,08,22,08,35,16.90
2015,08,22,08,36,16.80
2015,08,22,08,37,16.80
2015,08,22,08,38,16.80
2015,08,22,08,39,16.80
2015,08,22,08,40,16.70
2015,08,22,08,41,16.70
2015,08,22,08,42,16.70
2015,08,22,08,43,16.80
2015,08,22,08,44,16.90
2015,08,22,08,45,17.00
2015,08,22,08,46,17.00
2015,08,22,08,47,17.10
2015,08,22,08,48,17.10
2015,08,22,08,49,17.20
2015,08,22,08,50,17.30
2015,08,22,08,51,17.30
2015,08,22,08,52,17.30
2015,08,22,08,53,17.40
2015,08,22,08,54,17.50
2015,08,22,08,55,17.50
2015,08,22,08,56,17.60
2015,08,22,08,57,17.60
2015,08,22,08,58,17.60
2015,08,22,08,59,17.60
2015,08,22,09,00,17.50
2015,08,22,09,01,17.50
2015,08,22,09,02,17.50
2015,08,22,09,03,17.50
2015,08,22,09,04,17.50
2015,08,22,09,05,17.50
2015,08,22,09,06,17.50
2015,08,22,09,07,17.50
2015,08,22,09,08,17.60
2015,08,22,09,09,17.60
2015,08,22,09,10,17.60
2015,08,22,09,11,17.70
2015,08,22,09,12,17.80
2015,08,22,09,13,17.90
2015,08,22,09,14,17.90
2015,08,22,09,15,17.90
2015,08,22,09,16,17.90
2015,08,22,09,17,17.90
2015,08,22,09,18,17.90
2015,08,22,09,19,17.90
2015,08,22,09,20,18.00
2015,08,22,09,21,18.10
2015,08,22,09,22,18.10
2015,08,22,09,23,18.10
2015,08,22,09,24,18.20
2015,08,22,09,25,18.20
2015,08,22,09,26,18.20
2015,08,22,09,27,18.30
2015,08,22,09,28,18.30
2015,08,22,09,29,18.30
2015,08,22,09,30,18.30
2015,08,22,09,31,18.30
2015,08,22,09,32,18.30
2015,08,22,09,33,18.20
2015,08,22,09,34,18.30
2015,08,22,09,35,18.30
2015,08,22,09,36,18.30
2015,08,22,09,37,18.20
2015,08,22,09,38,18.20
2015,08,22,09,39,18.20
2015,08,22,09,40,18.30
2015,08,22,09,41,18.30
2015,08,22,09,42,18.30
2015,08,22,09,43,18.30
2015,08,22,09,44,18.30
2015,08,22,09,45,18.20
2015,08,22,09,46,18.20
2015,08,22,09,47,18.20
2015,08,22,09,48,18.30
2015,08,22,09,49,18.30
2015,08,22,09,50,18.40
2015,08,22,09,51,18.40
2015,08,22,09,52,18.50
2015,08,22,09,53,18.60
2015,08,22,09,54,18.70
2015,08,22,09,55,18.60
2015,08,22,09,56,18.60
2015,08,22,09,57,18.50
2015,08,22,09,58,18.50
2015,08,22,09,59,18.50
2015,08,22,10,00,18.50
2015,08,22,10,01,18.40
2015,08,22,10,02,18.50
2015,08,22,10,03,18.50
2015,08,22,10,04,18.50
2015,08,22,10,05,18.50
2015,08,22,10,06,18.50
2015,08,22,10,07,18.50
2015,08,22,10,08,18.50
2015,08,22,10,09,18.60
2015,08,22,10,10,18.70
2015,08,22,10,11,18.80
2015,08,22,10,12,18.90
2015,08,22,10,13,18.90
2015,08,22,10,14,19.10
2015,08,22,10,15,19.10
2015,08,22,10,16,19.10
2015,08,22,10,17,19.20
2015,08,22,10,18,19.20
2015,08,22,10,19,19.30
2015,08,22,10,20,19.30
2015,08,22,10,21,19.30
2015,08,22,10,22,19.30
2015,08,22,10,23,19.20
2015,08,22,10,24,19.10
2015,08,22,10,25,19.10
2015,08,22,10,26,19.10
2015,08,22,10,27,19.20
2015,08,22,10,28,19.30
2015,08,22,10,29,19.40
2015,08,22,10,30,19.40
2015,08,22,10,31,19.40
2015,08,22,10,32,19.50
2015,08,22,10,33,19.50
2015,08,22,10,34,19.50
2015,08,22,10,35,19.60
2015,08,22,10,36,19.60
2015,08,22,10,37,19.60
2015,08,22,10,38,19.60
2015,08,22,10,39,19.60
2015,08,22,10,40,19.50
2015,08,22,10,41,19.50
2015,08,22,10,42,19.50
2015,08,22,10,43,19.50
2015,08,22,10,44,19.40
2015,08,22,10,45,19.50
2015,08,22,10,46,19.50
2015,08,22,10,47,19.50
2015,08,22,10,48,19.50
2015,08,22,10,49,19.60
2015,08,22,10,50,19.60
2015,08,22,10,51,19.60
2015,08,22,10,52,19.70
2015,08,22,10,53,19.70
2015,08,22,10,54,19.80
2015,08,22,10,55,19.80
2015,08,22,10,56,19.80
2015,08,22,10,57,19.70
2015,08,22,10,58,19.70
2015,08,22,10,59,19.80
2015,08,22,11,00,19.80
2015,08,22,11,01,19.70
2015,08,22,11,02,19.70
2015,08,22,11,03,19.70
2015,08,22,11,04,19.80
2015,08,22,11,05,19.80
2015,08,22,11,06,19.90
2015,08,22,11,07,20.00
2015,08,22,11,08,20.10
2015,08,22,11,09,20.00
2015,08,22,11,10,19.90
2015,08,22,11,11,19.90
2015,08,22,11,12,19.90
2015,08,22,11,13,19.90
2015,08,22,11,14,19.90
2015,08,22,11,15,19.90
2015,08,22,11,16,19.90
2015,08,22,11,17,19.90
2015,08,22,11,18,19.80
2015,08,22,11,19,19.80
2015,08,22,11,20,19.70
2015,08,22,11,21,19.70
2015,08,22,11,22,19.70
2015,08,22,11,23,19.80
2015,08,22,11,24,19.90
2015,08,22,11,25,19.90
2015,08,22,11,26,19.90
2015,08,22,11,27,19.80
2015,08,22,11,28,19.70
2015,08,22,11,29,19.60
2015,08,22,11,30,19.40
2015,08,22,11,31,19.30
2015,08,22,11,32,19.10
2015,08,22,11,33,19.10
2015,08,22,11,34,19.20
2015,08,22,11,35,19.30
2015,08,22,11,36,19.30
2015,08,22,11,37,19.40
2015,08,22,11,38,19.40
2015,08,22,11,39,19.40
2015,08,22,11,40,19.40
2015,08,22,11,41,19.50
2015,08,22,11,42,19.60
2015,08,22,11,43,19.60
2015,08,22,11,44,19.60
2015,08,22,11,45,19.70
2015,08,22,11,46,19.60
2015,08,22,11,47,19.60
2015,08,22,11,48,19.50
2015,08,22,11,49,19.50
2015,08,22,11,50,19.40
2015,08,22,11,51,19.40
2015,08,22,11,52,19.40
2015,08,22,11,53,19.40
2015,08,22,11,54,19.40
2015,08,22,11,55,19.40
2015,08,22,11,56,19.40
2015,08,22,11,57,19.40
2015,08,22,11,58,19.40
2015,08,22,11,59,19.50
2015,08,22,12,00,19.60
2015,08,22,12,01,19.60
2015,08,22,12,02,19.70
2015,08,22,12,03,19.80
2015,08,22,12,04,19.90
2015,08,22,12,05,19.90
2015,08,22,12,06,19.90
2015,08,22,12,07,20.00
2015,08,22,12,08,20.10
2015,08,22,12,09,20.20
2015,08,22,12,10,20.30
2015,08,22,12,11,20.40
2015,08,22,12,12,20.40
2015,08,22,12,13,20.50
2015,08,22,12,14,20.60
2015,08,22,12,15,20.70
2015,08,22,12,16,20.70
2015,08,22,12,17,20.70
2015,08,22,12,18,20.60
2015,08,22,12,19,20.60
2015,08,22,12,20,20.70
2015,08,22,12,21,20.80
2015,08,22,12,22,20.90
2015,08,22,12,23,21.00
2015,08,22,12,24,21.20
2015,08,22,12,25,21.30
2015,08,22,12,26,21.20
2015,08,22,12,27,21.10
2015,08,22,12,28,21.00
2015,08,22,12,29,21.00
2015,08,22,12,30,21.00
2015,08,22,12,31,21.00
2015,08,22,12,32,21.10
2015,08,22,12,33,21.10
2015,08,22,12,34,21.10
2015,08,22,12,35,21.10
2015,08,22,12,36,21.20
2015,08,22,12,37,21.20
2015,08,22,12,38,21.30
2015,08,22,12,39,21.30
2015,08,22,12,40,21.30
2015,08,22,12,41,21.30
2015,08,22,12,42,21.30
2015,08,22,12,43,21.30
2015,08,22,12,44,21.30
2015,08,22,12,45,21.30
2015,08,22,12,46,21.30
2015,08,22,12,47,21.30
2015,08,22,12,48,21.30
2015,08,22,12,49,21.30
2015,08,22,12,50,21.20
2015,08,22,12,51,21.10
2015,08,22,12,52,21.00
2015,08,22,12,53,21.00
2015,08,22,12,54,21.00
2015,08,22,12,55,21.00
2015,08,22,12,56,21.10
2015,08,22,12,57,21.30
2015,08,22,12,58,21.30
2015,08,22,12,59,21.30
2015,08,22,13,00,21.30
2015,08,22,13,01,21.20
2015,08,22,13,02,21.10
2015,08,22,13,03,21.10
2015,08,22,13,04,21.10
2015,08,22,13,05,21.10
2015,08,22,13,06,21.10
2015,08,22,13,07,21.10
2015,08,22,13,08,21.10
2015,08,22,13,09,21.20
2015,08,22,13,10,21.20
2015,08,22,13,11,21.30
2015,08,22,13,12,21.30
2015,08,22,13,13,21.30
2015,08,22,13,14,21.30
2015,08,22,13,15,21.30
2015,08,22,13,16,21.50
2015,08,22,13,17,21.60
2015,08,22,13,18,21.80
2015,08,22,13,19,21.80
2015,08,22,13,20,21.70
2015,08,22,13,21,21.60
2015,08,22,13,22,21.60
2015,08,22,13,23,21.50
2015,08,22,13,24,21.40
2015,08,22,13,25,21.40
2015,08,22,13,26,21.30
2015,08,22,13,27,21.30
2015,08,22,13,28,21.30
2015,08,22,13,29,21.30
2015,08,22,13,30,21.20
2015,08,22,13,31,21.10
2015,08,22,13,32,21.10
2015,08,22,13,33,21.10
2015,08,22,13,34,21.00
2015,08,22,13,35,21.00
2015,08,22,13,36,20.90
2015,08,22,13,37,20.80
2015,08,22,13,38,20.80
2015,08,22,13,39,20.80
2015,08,22,13,40,20.70
2015,08,22,13,41,20.80
2015,08,22,13,42,20.80
2015,08,22,13,43,20.90
2015,08,22,13,44,20.90
2015,08,22,13,45,20.90
2015,08,22,13,46,20.90
2015,08,22,13,47,20.90
2015,08,22,13,48,20.90
2015,08,22,13,49,21.00
2015,08,22,13,50,21.00
2015,08,22,13,51,21.20
2015,08,22,13,52,21.20
2015,08,22,13,53,21.20
2015,08,22,13,54,21.30
2015,08,22,13,55,21.40
2015,08,22,13,56,21.60
2015,08,22,13,57,21.60
2015,08,22,13,58,21.60
2015,08,22,13,59,21.60
2015,08,22,14,00,21.70
2015,08,22,14,01,21.80
2015,08,22,14,02,21.90
2015,08,22,14,03,21.90
2015,08,22,14,04,21.90
2015,08,22,14,05,21.90
2015,08,22,14,06,21.90
2015,08,22,14,07,21.90
2015,08,22,14,08,22.00
2015,08,22,14,09,22.00
2015,08,22,14,10,22.00
2015,08,22,14,11,22.10
2015,08,22,14,12,22.10
2015,08,22,14,13,22.20
2015,08,22,14,14,22.20
2015,08,22,14,15,22.20
2015,08,22,14,16,22.30
2015,08,22,14,17,22.30
2015,08,22,14,18,22.30
2015,08,22,14,19,22.20
2015,08,22,14,20,22.10
2015,08,22,14,21,22.00
2015,08,22,14,22,22.00
2015,08,22,14,23,21.90
2015,08,22,14,24,21.70
2015,08,22,14,25,21.60
2015,08,22,14,26,21.50
2015,08,22,14,27,21.40
2015,08,22,14,28,21.30
2015,08,22,14,29,21.30
2015,08,22,14,30,21.40
2015,08,22,14,31,21.50
2015,08,22,14,32,21.60
2015,08,22,14,33,21.70
2015,08,22,14,34,21.70
2015,08,22,14,35,21.80
2015,08,22,14,36,21.80
2015,08,22,14,37,21.90
2015,08,22,14,38,21.90
2015,08,22,14,39,22.00
2015,08,22,14,40,22.00
2015,08,22,14,41,22.00
2015,08,22,14,42,22.10
2015,08,22,14,43,22.20
2015,08,22,14,44,22.20
2015,08,22,14,45,22.20
2015,08,22,14,46,22.20
2015,08,22,14,47,22.20
2015,08,22,14,48,22.30
2015,08,22,14,49,22.30
2015,08,22,14,50,22.40
2015,08,22,14,51,22.50
2015,08,22,14,52,22.50
2015,08,22,14,53,22.50
2015,08,22,14,54,22.40
2015,08,22,14,55,22.40
2015,08,22,14,56,22.40
2015,08,22,14,57,22.50
2015,08,22,14,58,22.50
2015,08,22,14,59,22.70
2015,08,22,15,00,22.70
2015,08,22,15,01,22.70
2015,08,22,15,02,22.80
2015,08,22,15,03,22.80
2015,08,22,15,04,22.80
2015,08,22,15,05,22.80
2015,08,22,15,06,22.80
2015,08,22,15,07,22.80
2015,08,22,15,08,22.70
2015,08,22,15,09,22.60
2015,08,22,15,10,22.50
2015,08,22,15,11,22.40
2015,08,22,15,12,22.40
2015,08,22,15,13,22.30
2015,08,22,15,14,22.30
2015,08,22,15,15,22.30
2015,08,22,15,16,22.20
2015,08,22,15,17,22.20
2015,08,22,15,18,22.30
2015,08,22,15,19,22.30
2015,08,22,15,20,22.30
2015,08,22,15,21,22.40
2015,08,22,15,22,22.50
2015,08,22,15,23,22.50
2015,08,22,15,24,22.40
2015,08,22,15,25,22.30
2015,08,22,15,26,22.20
2015,08,22,15,27,22.20
2015,08,22,15,28,22.10
2015,08,22,15,29,22.10
2015,08,22,15,30,22.00
2015,08,22,15,31,22.00
2015,08,22,15,32,22.00
2015,08,22,15,33,22.10
2015,08,22,15,34,22.20
2015,08,22,15,35,22.20
2015,08,22,15,36,22.30
2015,08,22,15,37,22.40
2015,08,22,15,38,22.50
2015,08,22,15,39,22.60
2015,08,22,15,40,22.50
2015,08,22,15,41,22.30
2015,08,22,15,42,22.20
2015,08,22,15,43,22.10
2015,08,22,15,44,22.00
2015,08,22,15,45,21.90
2015,08,22,15,46,21.80
2015,08,22,15,47,21.70
2015,08,22,15,48,21.70
2015,08,22,15,49,21.70
2015,08,22,15,50,21.70
2015,08,22,15,51,21.70
2015,08,22,15,52,21.70
2015,08,22,15,53,21.70
2015,08,22,15,54,21.70
2015,08,22,15,55,21.60
2015,08,22,15,56,21.60
2015,08,22,15,57,21.60
2015,08,22,15,58,21.60
2015,08,22,15,59,21.60
2015,08,22,16,00,21.60
2015,08,22,16,01,21.70
2015,08,22,16,02,21.60
2015,08,22,16,03,21.60
2015,08,22,16,04,21.60
2015,08,22,16,05,21.60
2015,08,22,16,06,21.60
2015,08,22,16,07,21.60
2015,08,22,16,08,21.60
2015,08,22,16,09,21.60
2015,08,22,16,10,21.70
2015,08,22,16,11,21.80
2015,08,22,16,12,21.80
2015,08,22,16,13,21.90
2015,08,22,16,14,21.80
2015,08,22,16,15,21.80
2015,08,22,16,16,21.80
2015,08,22,16,17,21.80
2015,08,22,16,18,21.80
2015,08,22,16,19,21.90
2015,08,22,16,20,22.00
2015,08,22,16,21,22.00
2015,08,22,16,22,22.00
2015,08,22,16,23,22.00
2015,08,22,16,24,22.00
2015,08,22,16,25,22.00
2015,08,22,16,26,22.00
2015,08,22,16,27,22.00
2015,08,22,16,28,22.10
2015,08,22,16,29,22.10
2015,08,22,16,30,22.20
2015,08,22,16,31,22.20
2015,08,22,16,32,22.30
2015,08,22,16,33,22.30
2015,08,22,16,34,22.40
2015,08,22,16,35,22.40
2015,08,22,16,36,22.50
2015,08,22,16,37,22.60
2015,08,22,16,38,22.60
2015,08,22,16,39,22.70
2015,08,22,16,40,22.70
2015,08,22,16,41,22.70
2015,08,22,16,42,22.70
2015,08,22,16,43,22.70
2015,08,22,16,44,22.80
2015,08,22,16,45,22.80
2015,08,22,16,46,22.90
2015,08,22,16,47,22.90
2015,08,22,16,48,23.00
2015,08,22,16,49,23.10
2015,08,22,16,50,23.20
2015,08,22,16,51,23.30
2015,08,22,16,52,23.30
2015,08,22,16,53,23.30
2015,08,22,16,54,23.30
2015,08,22,16,55,23.40
2015,08,22,16,56,23.40
2015,08,22,16,57,23.40
2015,08,22,16,58,23.50
2015,08,22,16,59,23.60
2015,08,22,17,00,23.60
2015,08,22,17,01,23.50
2015,08,22,17,02,23.40
2015,08,22,17,03,23.40
2015,08,22,17,04,23.30
2015,08,22,17,05,23.30
2015,08,22,17,06,23.30
2015,08,22,17,07,23.30
2015,08,22,17,08,23.30
2015,08,22,17,09,23.30
2015,08,22,17,10,23.30
2015,08,22,17,11,23.30
2015,08,22,17,12,23.50
2015,08,22,17,13,23.60
2015,08,22,17,14,23.70
2015,08,22,17,15,23.70
2015,08,22,17,16,23.70
2015,08,22,17,17,23.80
2015,08,22,17,18,23.80
2015,08,22,17,19,23.80